Simultaneous Nadir Overpasses (SNOs) Predictions

Prediction of SNOs between AQUA and METOP-A Satellite Orbit:

Table of predicted SNOs for the next 14.0 days since TLE Epoch: 9/15/2017
Index Date (AQUA) Time (AQUA) Lat,Lon (AQUA) SZA (AQUA ) Date (METOP-A) Time (METOP-A) Lat,Lon (METOP-A) SZA (METOP-A ) Distance(km) Time Diff (sec)
1 09/18/2017 08:30:20 73.96, 46.29 72.19 09/18/2017 08:29:47 73.95, 46.27 72.18 1.89 33
2 09/18/2017 09:19:46 -74.01,-146.17 107.75 09/18/2017 09:20:27 -74.03,-146.19 107.73 2.78 41
3 09/21/2017 04:04:37 73.98, 112.68 73.30 09/21/2017 04:04:06 73.99, 112.78 73.31 3.21 31
4 09/21/2017 04:54:03 -74.02, -79.77 106.65 09/21/2017 04:54:47 -74.02, -79.81 106.65 1.07 44
5 09/23/2017 23:38:53 73.96, 179.17 74.36 09/23/2017 23:38:26 73.98, 179.16 74.39 2.41 27
6 09/24/2017 00:28:20 -74.05, -13.39 105.54 09/24/2017 00:29:06 -74.06, -13.30 105.52 3.33 46
7 09/26/2017 19:13:09 73.99,-114.48 75.49 09/26/2017 19:12:45 73.96,-114.46 75.46 2.97 24
8 09/26/2017 20:02:35 -74.02, 53.09 104.47 09/26/2017 20:03:25 -74.05, 53.08 104.45 2.84 50
9 09/29/2017 13:57:45 -73.34, 145.72 104.11 09/29/2017 13:56:39 -73.26, 143.00 104.13 87.44 66
10 09/29/2017 14:47:25 73.98, -48.03 76.57 09/29/2017 14:47:04 74.00, -47.97 76.59 2.59 21
11 09/29/2017 15:36:52 -74.06, 119.43 103.34 09/29/2017 15:37:45 -74.04, 119.45 103.37 3.24 53




NCC Satellite Simultaneous Nadir Overpasses (SNOs) Prediction Service
